Location: *
(33.3200°N, 8.3381°W)
Time: 19:50:59
(UTC+00:00)

ARGOS - Pass Details

Date: 09 April 2020
Orbit: 820 x 834 km, 98.5° (Epoch: 27 May)

Event Time Altitude Azimuth Distance (km) Brightness Sun altitude
Exits shadow 19:21:04 - 131° (SE) 3,146 5.6 -5.2°
Reaches altitude 10° 19:23:14 10° 120° (ESE) 2,427 5.0 -5.6°
Maximum altitude 19:27:25 24° 68° (ENE) 1,663 4.3 -6.4°
Drops below altitude 10° 19:31:37 10° 17° (NNE) 2,430 5.6 -7.3°
Sets 19:34:22 0° 3° (N) 3,364 6.5 -7.9°
